Tracking 18980 objects as of 23-Feb-2018
HD Live streaming from Space Station
objects crossing your sky now

FENGYUN 1C DEB

Track FENGYUN 1C DEB now!
10-day predictions


NORAD ID: 33619
Int'l Code: 1999-025DDC
Perigee: 836.2 km
Apogee: 925.5 km
Inclination: 99.1 °
Period: 102.4 minutes
Semi major axis: 7251 km
RCS: 0.0032 m2 (small)
Launch date: May 10, 1999
Source: People's Republic of China (PRC)
Launch site: Taiyaun Space Center, China (TSC)

Note: This is SATELLITE DEBRIS
aabbcc
Your satellite tracking list
Your tracking list is empty




NASA's NSSDC Master Catalog

Two Line Element Set (TLE):
1 33619U 99025DDC 18053.60102506 +.00000794 +00000-0 +50458-3 0  9999
2 33619 099.0541 103.0960 0061609 131.4953 023.6360 14.05824225234854
Source of the keplerian elements: AFSPC